Starlink 4474

operational
NORAD ID: 53547 Int'l Des: 2022-101 Owner: SPXS Country: US Constellation: starlink
LEOCIRCULAR

Starlink 4474について

説明を読み込み中...

リアルタイム位置

3D地球を読み込み中...

次回通過

高度履歴

Altitude vs Time

uPlot chart will show altitude changes over time

軌道要素

1 53547U 22101W 25257.36107757 .00000239 00000-0 33077-4 0 9995
2 53547 53.2168 135.6913 0001254 91.8025 268.3111 15.08841643170354
Epoch: Sep 14, 2025 • Age: 23 hours

現在のステータス

高度 540.6 km
速度 7.59 km/s
衛星直下点 -0.56°S, 158.52°W
打ち上げ日 Aug 19, 2022
運用期間 3 years
タイプ internet

技術仕様

分類 Payload
質量 300.00 kg
乾燥質量 290.00 kg
総質量 300.00 kg
長さ 0.20 m
直径 2.80 m
スパン 9.00 m
形状 Box + pan
製造者 SPXS
バスタイプ Starlink
フェーズステータス In Orbit
所有者/国 SPXS/US

大規模コンステレーション

Loading constellations...